User: anonymous   Login
Location: Unspecified
(0.0000°N, 0.0000°E)
Time: 00:52:30
(UTC+00:00)
Language:

STARLINK-32099 - Orbit

View from above orbital plane
View from above orbital plane
View from above satellite
View from above satellite

Ground track
Ground track

The orbit is defined by the following mean orbital elements,

1 59697U          26145.57734132 +.00000000 +00000-0 +22248-3 0 00000
2 59697  43.0010 345.4635 0001715 263.1941  96.8716 15.27576965    06
Epoch (UTC): 25 May 2026 13:51:22
Eccentricity: 0.0001715
inclination: 43.0010°
perigee height: 482 km
apogee height: 484 km
right ascension of ascending node: 345.4635°
argument of perigee: 263.1941°
revolutions per day: 15.27576965
mean anomaly at epoch: 96.8716°

The dashed part of the orbit path shows where the satellite is in the earth's shadow,  

DLR